Location: Gardères
(43.2833°N, 0.1167°W)
Time: 16:07:55
(UTC+00:00)

Daily predictions for brighter satellites

Satellite Brightness Start Highest point End
(mag) Time Altitude Azimuth Time Altitude Azimuth Time Altitude Azimuth
Cosmos 1666 Rocket 4.0 18:39:23 10° SSW 18:43:44 67° W 18:48:06 10° N
Okean 3 4.1 18:39:56 10° N 18:43:47 33° ENE 18:47:38 10° SE
Cosmos 1933 Rocket 4.2 18:40:39 10° SSE 18:44:30 32° E 18:48:23 10° NNE
Cosmos 1624 Rocket 4.1 18:39:45 10° S 18:44:53 55° ESE 18:50:05 10° NNE
Okean 1-7 3.7 18:40:56 10° N 18:44:57 35° ENE 18:48:56 10° SE
Meteor 1-11 Rocket 4.3 18:41:58 10° SSW 18:47:52 70° WNW 18:53:42 10° N
Exosat Rocket 3.8 18:45:37 10° S 18:50:30 54° ESE 18:56:27 10° NNE
Cosmos 2333 4.3 18:45:34 10° NNW 18:51:23 75° ENE 18:57:09 10° SSE
Cosmos 2322 Rocket 3.3 18:46:23 10° NW 18:51:52 49° WSW 18:57:19 10° S
In-Cosmos 22 4.4 18:46:30 10° N 18:52:02 53° ENE 18:57:38 10° SSE
Cosmos 1420 Rocket 4.0 18:46:56 10° S 18:52:05 60° ESE 18:57:12 10° NNE
CZ-3 Stage 3 3.9 18:51:04 10° S 18:52:25 12° SSE 18:54:07 10° SE
Cosmos 2237 Rocket 3.9 18:50:18 10° N 18:53:47 16° NE 18:57:16 10° E
KORONAS-FOTON 4.3 18:50:33 10° N 18:54:07 38° ENE 18:57:42 10° SSE
Cosmos 1842 3.1 18:50:30 10° N 18:54:20 83° E 18:58:07 10° S
GEOS 3 Rocket 3.8 18:50:47 10° NE 18:56:12 86° NW 19:01:35 10° SW
Cosmos 1862 Rocket 4.0 18:52:10 10° NNW 18:56:36 68° W 19:01:02 10° S
Cosmos 1459 Rocket 4.1 18:51:39 10° N 18:57:30 49° ENE 19:03:21 10° SSE
USA 305 2.6 18:56:16 10° NW 19:00:05 84° SW 19:03:53 10° SE
MOS 1-B 4.4 18:56:53 10° SSE 19:02:42 85° ENE 19:08:32 10° NNW
Cosmos 1633 Rocket 4.1 18:58:32 10° SSW 19:02:47 51° WNW 19:07:06 10° N
USA 307 2.8 19:00:25 10° NW 19:04:14 74° SW 19:07:59 10° SE
Resurs 01 Rocket 3.4 19:03:03 12° E 19:04:53 15° ENE 19:07:26 10° NNE
CZ-4B R/B 3.3 19:00:27 10° SSE 19:06:07 87° ENE 19:11:48 10° NNW
Lacrosse 5 rocket 3.0 19:04:14 10° SSE 19:06:40 15° ESE 19:07:27 14° ESE
Cosmos 1975 3.1 19:04:34 10° SSE 19:08:19 44° E 19:12:06 10° NNE
Cosmos 2322 3.8 19:03:17 10° NNW 19:08:54 58° ENE 19:14:27 10° SE
Cosmos 1452 Rocket 4.3 19:04:56 10° SSE 19:09:21 28° E 19:13:47 10° NE
SJ-6B 3.1 19:07:02 10° SE 19:10:47 44° ENE 19:14:30 10° N
Cosmos 1805 4.3 19:09:09 10° SE 19:12:11 23° E 19:15:14 10° NE
Cosmos 1707 2.6 19:08:24 10° N 19:12:13 77° E 19:15:59 10° SSE
Cosmos 676 Rocket 4.0 19:07:02 10° NNW 19:12:13 62° ENE 19:17:25 10° SSE
Cosmos 2333 Rocket 2.7 19:10:47 10° NNW 19:16:32 66° WSW 19:22:12 10° SSE
USA 215 4.5 19:11:48 10° NE 19:17:42 38° NNW 19:23:37 10° W
ISS -1.7 19:15:39 10° WNW 19:18:27 24° NNW 19:21:14 10° NE
Cosmos 2219 Rocket 2.2 19:12:58 10° NNW 19:18:42 88° ENE 19:24:23 10° SSE
SL-27 R/B 2.3 19:15:46 10° SSW 19:19:04 82° WNW 19:22:21 10° NNE
Meteor 2-9 Rocket 4.5 19:13:56 10° SSW 19:19:27 72° W 19:24:52 10° N
Cosmos 1802 Rocket 4.1 19:13:19 10° N 19:19:29 58° ENE 19:25:43 10° SSE
IGS 5A 3.4 19:15:56 10° SSE 19:20:02 84° E 19:24:12 10° N
Cosmos 1190 Rocket 4.4 19:15:47 10° NNW 19:20:57 67° WSW 19:26:07 10° S
Cosmos 1703 Rocket 3.5 19:17:10 10° N 19:21:37 73° E 19:26:02 10° SSE
Cosmos 1674 2.5 19:19:35 10° N 19:23:20 84° E 19:27:03 10° S
CSL-04 Debris 4.3 19:18:36 10° SSE 19:23:51 57° ENE 19:29:11 10° N
Resurs 1-3 3.8 19:20:41 10° SSE 19:24:53 49° ENE 19:29:06 10° N
EXPRESS MD2 2.2 19:23:23 10° WNW 19:25:32 56° SSW 19:26:19 32° SSE
COSMOS 2428 2.8 19:22:00 10° NNW 19:27:41 63° ENE 19:32:31 15° SE
SL-14 R/B 4.2 19:24:25 10° NNE 19:27:45 27° ENE 19:28:35 25° E
USA 186 1.6 19:26:43 17° SSE 19:28:57 60° ENE 19:32:02 10° N
BREEZE M DEB (TANK) 3.7 19:28:15 10° WNW 19:30:38 26° NNW 19:31:58 16° NE
Spot 1 4.4 19:27:10 10° NNE 19:32:08 90° WSW 19:37:15 10° SSW
Okean-O 3.0 19:29:27 19° SE 19:32:10 42° ENE 19:36:21 10° N
USA 308 3.6 19:28:55 10° WNW 19:32:28 41° SW 19:35:08 16° SSE
Cosmos 2297 Rocket 2.9 19:29:18 10° SSE 19:34:03 29° ESE 19:38:49 10° NE
Cosmos 1954 Rocket 4.2 19:29:20 10° NNW 19:34:33 74° WSW 19:39:48 10° SSE
Cosmos 2016 Rocket 3.9 19:29:30 10° N 19:35:35 64° E 19:41:39 10° SSE
Cosmos 2123 Rocket 3.9 19:29:37 10° S 19:35:50 69° E 19:42:07 10° NNE
Cosmos 1726 2.2 19:35:28 17° SSE 19:37:48 43° E 19:41:09 10° NNE
CZ-4 R/B 2.5 19:34:52 10° S 19:38:30 43° W 19:42:13 10° NNW
Cosmos 2173 Rocket 4.2 19:34:39 10° N 19:41:02 75° W 19:47:22 10° S
Okean O Rocket 2.4 19:37:52 10° S 19:42:12 54° W 19:46:32 10° NNW
NOSS 0 Rocket 4.0 19:38:59 10° NNW 19:45:06 57° ENE 19:48:33 26° SE
SL-08 R/B 4.5 19:39:41 10° N 19:46:02 67° E 19:52:17 10° SSE
Cosmos 2242 Rocket 3.5 19:42:05 10° N 19:46:42 77° E 19:50:25 15° SSE
Ariane Rocket 4.5 19:47:24 19° ENE 19:47:30 19° ENE 19:50:56 10° NNE
Cosmos 2227 Rocket 4.3 19:53:55 11° NE 19:53:55 11° NE 19:54:07 10° NE
Cosmos 2360 Rocket 4.4 19:45:21 10° NW 19:49:46 24° WSW 19:54:10 10° SSW
Helios 1B 4.4 19:46:38 10° NNE 19:51:00 72° ESE 19:55:17 10° S
Cosmos 1733 3.1 19:48:08 10° S 19:51:54 88° WNW 19:55:41 10° N
USA 267 4.5 19:47:02 10° SSE 19:53:00 37° SW 19:58:59 10° WNW
Cosmos 1867 3.5 19:48:40 10° SSW 19:53:59 60° ESE 19:59:21 10° NE
Okean 2 3.2 19:56:54 10° N 20:00:58 82° E 20:02:24 40° SSE
SL-16 R/B 3.8 19:58:42 10° N 20:02:37 19° NE 20:03:15 18° NE
NOSS 3-2 (A) 4.1 20:00:43 10° NW 20:08:22 87° SW 20:13:45 27° SSE
Cosmos 1818 4.3 20:03:20 10° NW 20:08:35 50° WSW 20:12:06 20° S
H-2A R/B 4.1 20:18:42 24° NE 20:18:42 24° NE 20:21:08 10° N
NOSS 3-2 (C) 4.1 20:10:41 10° NNW 20:18:13 68° NE 20:21:41 39° ESE
Meteor 2-10 4.4 20:13:31 10° SSW 20:18:28 61° WNW 20:23:29 10° N
Geosat 3.9 20:18:43 48° SSE 20:20:10 87° WSW 20:25:14 10° NNW
CENTAUR R/B 3.4 20:13:30 10° NW 20:21:52 73° WSW 20:27:30 26° SSE
Iridium 4 Rocket 4.2 20:24:14 10° NNW 20:28:09 40° W 20:31:13 15° SSW
SPOT 1/Viking Rocket 3.7 20:27:33 37° S 20:29:36 72° WSW 20:34:49 10° NNW
Cosmos 2061 Rocket 4.5 20:23:24 10° NNW 20:29:45 62° W 20:35:37 12° S
Cosmos 2233 Rocket 4.0 20:24:18 10° N 20:30:28 78° W 20:33:52 28° S
Cosmos 1850 Rocket 4.2 20:25:53 10° NNW 20:31:12 70° WSW 20:32:43 46° S
USA 238 DEB 4.0 20:24:21 10° NNW 20:31:40 65° NE 20:33:45 48° ESE
USA 238 4.0 20:24:27 10° NNW 20:31:46 65° NE 20:33:50 48° ESE
Cosmos 1110 Rocket 4.3 20:32:07 10° SSW 20:37:18 67° WNW 20:42:29 10° NNE
Terra 3.8 20:40:22 18° NNE 20:40:22 18° NNE 20:42:02 10° NNE
Cosmos 2237 Rocket 2.0 20:33:01 10° NNW 20:38:42 87° ENE 20:39:15 74° SSE
Resurs 01 Rocket 2.0 20:40:35 57° WSW 20:40:53 58° W 20:45:16 10° NNW
Lacrosse 5 rocket 2.9 20:40:46 10° SW 20:42:54 28° SW 20:42:54 28° SW
CZ-4C R/B 3.9 20:42:14 10° NNW 20:48:21 31° NE 20:49:46 29° ENE
MetOp-B 4.1 20:50:58 72° NNE 20:50:58 72° NNE 20:55:53 10° NNW
SPOT 5 4.2 20:53:49 29° NNE 20:53:49 29° NNE 20:56:23 10° N
MetOp-A 4.0 20:52:25 82° WNW 20:52:25 82° WNW 20:57:35 10° NNW
ISS -0.8 20:53:27 10° NW 20:54:34 16° NNW 20:54:34 16° NNW
Meteor 1-24 Rocket 4.3 20:51:50 10° N 20:56:26 47° NE 20:56:26 47° NE
FALCON 9 R/B 3.5 20:38:57 10° W 20:57:46 50° SSW 20:58:48 48° S
Cosmos 1980 4.0 20:54:09 10° NNW 20:59:45 60° WSW 21:00:06 59° SW
ADEOS Rocket 3.6 21:05:22 47° NE 21:05:22 47° NE 21:11:03 10° N
Cosmos 2297 Rocket 3.2 21:12:30 10° SW 21:17:51 43° WNW 21:23:15 10° NNE
Cosmos 968 Rocket 4.3 21:13:31 10° NNW 21:17:19 47° NW 21:17:19 47° NW
Meteor 2-5 Rocket 4.3 21:15:07 10° N 21:19:35 55° N 21:19:35 55° N
ERS-1 Rocket 4.4 21:25:22 31° N 21:25:22 31° N 21:27:59 10° N
Ariane Rocket 4.1 21:27:34 41° NW 21:27:34 41° NW 21:31:00 10° NNW
Cosmos 1464 Rocket 4.3 21:21:48 10° N 21:27:07 64° NNW 21:27:07 64° NNW
Cosmos 2227 Rocket 3.5 21:35:33 34° N 21:35:33 34° N 21:38:57 10° NNE
SL-16 R/B 3.4 21:41:43 10° NNW 21:45:08 38° NNW 21:45:08 38° NNW
ATLAS 3B R/B 4.4 21:57:09 10° NNW 22:03:12 25° NNE 22:03:36 25° NE
SJ 16-02 4.3 21:59:20 10° NNW 21:59:43 12° NNW 21:59:43 12° NNW
CZ-4C R/B 3.8 22:30:15 10° NW 22:34:56 46° NW 22:34:56 46° NW
